Home > Weather > Abbotsford > Past weeks

Flag for Canada Past Weather in Abbotsford, British Columbia, Canada — Yesterday and Last 2 Weeks

Now
63 °F

Passing clouds.


Feels Like: 63 °F
Forecast: 47 / 68 °F
Wind: 6 mph from Southwest

Location: Abbotsford

Current Time: May 29, 2016 at 8:02:09 PM

Latest Report: May 29, 2016 at 7:00 PM


Visibility: 25 mi

Pressure: 30.17 "Hg

Humidity: 56%

Dew Point: 46 °F

Location of AbbotsfordLocation

Past Weather in Abbotsford — Graph

°F

Abbotsford Temperature Yesterday

Maximum temperature yesterday: 57 °F (at 6:00 PM)
Minimum temperature yesterday: 48 °F (at 4:00 AM)
Average temperature yesterday: 51 °F

High & Low Weather Summary for the Past Weeks

 TemperatureHumidityPressure
High70 °F (May 17, 5:00 PM)100% (May 19, 12:00 AM)30.30 "Hg (May 19, 12:00 AM)
Low48 °F (May 19, 12:00 AM)40% (May 20, 4:00 PM)29.72 "Hg (May 21, 5:00 AM)
Average56 °F77%30.01 "Hg
* Reported May 14 7:00 PM — May 29 7:00 PM, Abbotsford, Weather by CustomWeather, © 2016

Note: Actual official high and low records may vary slightly from our data, if they occured in-between our weather recording intervals... More about our weather records

Advertising

Abbotsford Weather History for the Previous 24 Hours

Scroll right to see more
 ConditionsComfort  
Time TempWeatherWind HumidityBarometerVisibility
7:00 PM
Sun, May 29
63 °FPassing clouds.6 mph56%30.17 "Hg25 mi
6:00 PM63 °FScattered clouds.10 mph52%30.17 "Hg25 mi
5:00 PM64 °FScattered clouds.9 mph49%30.16 "Hg25 mi
4:00 PM63 °FScattered clouds.13 mph56%30.16 "Hg25 mi
3:00 PM63 °FScattered clouds.15 mph59%30.15 "Hg20 mi
2:00 PM61 °FBroken clouds.12 mph68%30.14 "Hg20 mi
1:00 PM61 °FPartly sunny.15 mph68%30.13 "Hg20 mi
12:00 PM59 °FPartly sunny.14 mph72%30.13 "Hg20 mi
11:00 AM55 °FPartly sunny.10 mph77%30.11 "Hg15 mi
10:00 AM55 °FBroken clouds.10 mph88%30.11 "Hg15 mi
9:00 AM54 °FCloudy.8 mph94%30.09 "Hg15 mi
8:00 AM54 °FCloudy.7 mph94%30.08 "Hg15 mi
7:00 AM52 °FBroken clouds.7 mph100%30.06 "Hg20 mi
6:00 AM52 °FMostly cloudy.5 mph94%30.04 "Hg20 mi
5:00 AM50 °FPartly cloudy.6 mph100%30.03 "Hg15 mi
4:00 AM52 °FPassing clouds.3 mph94%30.02 "Hg10 mi
3:00 AM50 °FPassing clouds.3 mph100%30.02 "Hg10 mi
2:00 AM52 °FPassing clouds.6 mph100%30.01 "Hg10 mi
1:00 AM54 °FMostly cloudy.6 mph94%30.00 "Hg10 mi
12:00 AM54 °FOvercast.8 mph94%30.00 "Hg10 mi
11:00 PM
Sat, May 28
54 °FLight rain. Mostly cloudy.9 mph94%30.00 "Hg10 mi
10:00 PM54 °FLight rain. Mostly cloudy.10 mph94%30.00 "Hg8 mi
9:00 PM54 °FLight rain. Cloudy.12 mph94%29.98 "Hg10 mi
8:00 PM55 °FLight rain. Mostly cloudy.8 mph88%29.98 "Hg10 mi
Weather by CustomWeather, © 2016

See weather overviewHow to use our weather pages